Location: Cantaing
(50.1487°N, 3.1675°E)
Time: 15:15:06
(UTC+00:00)

Cosmos 1953 - Visible Passes

Search period start: 19 April 2026 00:00
Search period end: 29 April 2026 00:00
Orbit: 471 x 485 km, 82.5° (Epoch: 19 April)

Date Brightness Start Highest point End Pass type
(mag) Time Alt. Az. Time Alt. Az. Time Alt. Az.
19 Apr 5.7 03:52:03 10° NNE 03:54:02 14° ENE 03:55:59 10° E visible
22 Apr 4.3 04:05:54 10° N 04:09:14 32° ENE 04:12:33 10° SE visible
23 Apr 5.1 03:39:32 10° NNE 03:42:24 21° ENE 03:45:16 10° ESE visible
24 Apr 5.4 03:13:28 10° NNE 03:15:31 14° ENE 03:17:34 10° E visible
26 Apr 3.0 03:53:45 10° N 03:57:21 54° ENE 04:00:57 10° SSE visible
27 Apr 4.1 03:27:10 10° N 03:30:32 33° ENE 03:33:53 10° SE visible
28 Apr 4.9 03:00:45 10° NNE 03:03:39 22° ENE 03:06:32 10° ESE visible
